Location: Stuttgart
(48.7824°N, 9.1964°E)
Time: 12:03:19
(UTC+01:00)

ISS - Pass Details

Date: 01 February 2019
Orbit: 403 x 411 km, 51.6° (Epoch: 21 February)

Event Time Altitude Azimuth Distance (km) Brightness Sun altitude
Rises 20:30:04 0° 290° (WNW) 2,342 1.1 -31.3°
Reaches altitude 10° 20:32:10 10° 289° (WNW) 1,480 -0.1 -31.6°
Enters shadow 20:32:18 11° 289° (WNW) 1,425 -0.2 -31.6°
